Location: Crocus Hill
(18.2167°N, 63.0667°W)
Time: 17:16:07
(UTC+00:00)

RESURS DK-1 - Pass Details

Date: 26 January 2020
Orbit: 554 x 564 km, 69.9° (Epoch: 23 February)

Event Time Altitude Azimuth Distance (km) Brightness Sun altitude
Exits shadow 10:03:28 15° 282° (WNW) 1,561 3.9 -10.6°
Maximum altitude 10:04:06 15° 293° (WNW) 1,539 3.9 -10.4°
Drops below altitude 10° 10:06:30 10° 329° (NNW) 1,837 4.6 -9.9°
Sets 10:09:32 0° 353° (N) 2,736 5.6 -9.2°
